Location: Poughquag
(41.6090°N, 73.6820°W)
Time: 11:31:15
(UTC-04:00)

Tiros 1 despin weight - Pass Details

Date: 01 June 2020
Orbit: 593 x 642 km, 48.2° (Epoch: 07 July)

Event Time Altitude Azimuth Distance (km) Brightness Sun altitude
Rises 11:19:24 0° 249° (WSW) 2,921 ? 62.4°
Reaches altitude 10° 11:21:45 10° 251° (WSW) 2,009 ? 62.8°
Maximum altitude 11:26:22 70° 335° (NNW) 667 ? 63.4°
Drops below altitude 10° 11:30:55 10° 60° (ENE) 1,985 ? 64.1°
Sets 11:33:14 0° 63° (ENE) 2,884 ? 64.4°
